map of UIO home
UIO - Airport
Location
City:  Quito, Pichincha, Ecuador
Near (Alt.):Tababela
Name:Mitad del Mundo International Airport
ICAO:SEQM
IATA:UIO

Details
Type:Airport (Aerodrome, Airfield)
Use:Public/Civil, International (customs port of entry)
Latitude:006'48"S (-0.113332)
Longitude:7821'31"W (-78.358610)
Elevation:7874 ft (2400 m)
Variation:3.56W (WMM2015 magnetic declination)
-0.16 annual change
Runways:1
Longest:13451 ft (4100 m), paved

Weather
METAR:SEQM 210300Z VRB02KT 9999 FEW010 SCT300 11/10 Q1027 NOSIG RMK A3035
TAF:SEQM 200550Z 2006/2106 06003KT 4000 BCFG FEW005
FM201200 VRB03KT 9999 FEW040
BECMG 2018/2019 35012KT
FM210000 03004KT 9999 SCT030 TX26/2019Z TN06/2011Z

Related Locations
Nearby:
Farthest:PKU: 12437 mi / 20015 km
Pekanbaru [Sultan Syarif Kasim II Intl (Simpang Tiga Airport)], RI, ID

Find:

   beyond  
but within

Other Information
Maps:
NOTAMs:
Links:
Sources:

  
flag of Ecuador
flag of Pichincha
  

Sectional Chart

Flight Planning
at skyvector.com

Satellite Image

Google Maps Satellite view

 

Copyright © 2004-2017 Karl L. Swartz. All rights reserved.
The Great Circle Mapper name and logo are trademarks of the Great Circle Mapper.
All other trademarks mentioned herein belong to their respective owners.
Please see credits for attibutions and further copyright information.

  Follow gcmap on Facebook Follow gcmap on Twitter Follow gcmap on Google+ GCmap on LinkedIn

hCard Microformat

Geo Microformat